WMT34XC LRBC-LROP

Flight info

Callsign WMT34XC
Flight time 0h 34m
Altitude 20000
Route KENUX T74 DENAK
Aircraft A20N/M-SDE2E3FGHIRWXY/LB1

Departure

Time 2026-04-30 18:42
Airport Bacău George Enescu International Airport (LRBC)

Arrival

Time 2026-04-30 19:17
Airport Bucharest Henri Coandă International Airport (LROP)
Time Latitude Longitude Altitude Speed Heading
2026-04-30 18:15 46.53197 26.90981 620 ft 0 kts 74°
2026-04-30 18:30 46.53194 26.90967 618 ft 2 kts 74°
2026-04-30 18:31 46.53190 26.90943 614 ft 2 kts 75°
2026-04-30 18:31 46.53182 26.90897 622 ft 2 kts 83°
2026-04-30 18:32 46.53191 26.90864 620 ft 1 kts 162°
2026-04-30 18:32 46.53192 26.90864 619 ft 0 kts 162°
2026-04-30 18:35 46.53184 26.90868 617 ft 3 kts 163°
2026-04-30 18:35 46.53152 26.90881 621 ft 7 kts 164°
2026-04-30 18:36 46.53018 26.90934 616 ft 13 kts 165°
2026-04-30 18:36 46.52931 26.90967 619 ft 11 kts 165°
2026-04-30 18:36 46.52795 26.91002 614 ft 8 kts 200°
2026-04-30 18:37 46.52778 26.90974 624 ft 0 kts 240°
2026-04-30 18:37 46.52776 26.90969 614 ft 3 kts 242°
2026-04-30 18:37 46.52756 26.90880 616 ft 14 kts 257°
2026-04-30 18:38 46.52697 26.90818 623 ft 13 kts 169°
2026-04-30 18:38 46.52594 26.90859 623 ft 18 kts 165°
2026-04-30 18:38 46.52425 26.90926 622 ft 33 kts 162°
2026-04-30 18:38 46.52158 26.91029 618 ft 45 kts 165°
2026-04-30 18:39 46.51846 26.91152 624 ft 47 kts 164°
2026-04-30 18:39 46.51537 26.91276 622 ft 43 kts 165°
2026-04-30 18:39 46.51336 26.91355 617 ft 10 kts 163°
2026-04-30 18:39 46.51256 26.91387 624 ft 11 kts 164°
2026-04-30 18:40 46.51199 26.91433 614 ft 11 kts 135°
2026-04-30 18:40 46.51137 26.91480 624 ft 6 kts 205°
2026-04-30 18:40 46.51135 26.91444 621 ft 3 kts 304°
2026-04-30 18:40 46.51155 26.91426 617 ft 4 kts 342°
2026-04-30 18:41 46.51155 26.91425 617 ft 0 kts 342°
2026-04-30 18:41 46.51156 26.91425 617 ft 1 kts 342°
2026-04-30 18:41 46.51410 26.91325 616 ft 73 kts 343°
2026-04-30 18:42 46.52105 26.91052 620 ft 130 kts 345°
2026-04-30 18:42 46.54085 26.90227 1475 ft 154 kts 343°
2026-04-30 18:42 46.55080 26.89811 2327 ft 143 kts 347°
2026-04-30 18:45 46.64159 26.77459 9305 ft 285 kts 229°
2026-04-30 18:45 46.62527 26.75787 10257 ft 293 kts 202°
2026-04-30 18:45 46.60507 26.75280 11062 ft 298 kts 175°
2026-04-30 18:46 46.58514 26.76053 11898 ft 301 kts 152°
2026-04-30 18:46 46.56710 26.77615 12778 ft 303 kts 145°
2026-04-30 18:46 46.54944 26.79306 13639 ft 307 kts 146°
2026-04-30 18:46 46.53132 26.80913 14442 ft 311 kts 149°
2026-04-30 18:47 46.51104 26.82031 15161 ft 315 kts 171°
2026-04-30 18:47 46.48921 26.82058 15915 ft 316 kts 191°
2026-04-30 18:47 46.46724 26.81473 16363 ft 331 kts 192°
2026-04-30 18:47 46.44385 26.80831 16580 ft 352 kts 192°
2026-04-30 18:48 46.41919 26.80161 16901 ft 367 kts 192°
2026-04-30 18:48 46.39386 26.79485 17621 ft 370 kts 192°
2026-04-30 18:48 46.36851 26.78815 18360 ft 374 kts 192°
2026-04-30 18:48 46.34277 26.78138 19014 ft 377 kts 192°
2026-04-30 18:49 46.31684 26.77454 19635 ft 380 kts 192°
2026-04-30 18:49 46.29063 26.76762 20142 ft 384 kts 192°
2026-04-30 18:49 46.26458 26.76073 20293 ft 385 kts 192°
2026-04-30 18:49 46.23792 26.75368 20323 ft 385 kts 192°
2026-04-30 18:50 46.21195 26.74683 20324 ft 384 kts 192°
2026-04-30 18:50 46.18562 26.73989 20324 ft 384 kts 192°
2026-04-30 18:50 46.15946 26.73300 20327 ft 384 kts 192°
2026-04-30 18:50 46.13322 26.72610 20327 ft 383 kts 192°
2026-04-30 18:51 46.10697 26.71920 20326 ft 383 kts 192°
2026-04-30 18:51 46.08072 26.71231 20328 ft 383 kts 192°
2026-04-30 18:51 46.05448 26.70544 20331 ft 383 kts 192°
2026-04-30 18:51 46.02831 26.69859 20330 ft 383 kts 192°
2026-04-30 18:52 46.00204 26.69172 20327 ft 382 kts 192°
2026-04-30 18:52 45.97579 26.68487 20330 ft 382 kts 192°
2026-04-30 18:52 45.94971 26.67808 20329 ft 382 kts 192°
2026-04-30 18:52 45.92359 26.67128 20331 ft 381 kts 192°
2026-04-30 18:53 45.89745 26.66448 20331 ft 381 kts 192°
2026-04-30 18:53 45.87136 26.65771 20331 ft 379 kts 192°
2026-04-30 18:53 45.84535 26.65096 20335 ft 388 kts 192°
2026-04-30 18:53 45.81813 26.64389 20331 ft 401 kts 192°
2026-04-30 18:54 45.79155 26.63702 20330 ft 385 kts 192°
2026-04-30 18:54 45.76569 26.63037 20334 ft 372 kts 192°
2026-04-30 18:54 45.73998 26.62373 20331 ft 378 kts 192°
2026-04-30 18:54 45.71405 26.61703 20332 ft 377 kts 192°
2026-04-30 18:55 45.68820 26.61036 20332 ft 376 kts 192°
2026-04-30 18:55 45.63665 26.59708 20329 ft 375 kts 192°
2026-04-30 18:55 45.61087 26.59043 20332 ft 376 kts 192°
2026-04-30 18:56 45.55968 26.57728 20334 ft 376 kts 192°
2026-04-30 18:56 45.53393 26.57068 20330 ft 376 kts 192°
2026-04-30 18:56 45.50822 26.56410 20327 ft 375 kts 192°
2026-04-30 18:57 45.45678 26.55093 20328 ft 375 kts 192°
2026-04-30 18:57 45.43109 26.54438 20327 ft 374 kts 192°
2026-04-30 18:57 45.40547 26.53784 20329 ft 374 kts 192°
2026-04-30 18:58 45.35423 26.52479 20323 ft 373 kts 192°
2026-04-30 18:58 45.32872 26.51829 20324 ft 372 kts 192°
2026-04-30 18:58 45.30322 26.51181 20321 ft 372 kts 192°
2026-04-30 18:59 45.25238 26.49889 20318 ft 370 kts 192°
2026-04-30 19:00 45.17674 26.47973 20317 ft 369 kts 192°
2026-04-30 19:00 45.15141 26.47332 20313 ft 369 kts 192°
2026-04-30 19:00 45.10909 26.46263 20315 ft 368 kts 192°
2026-04-30 19:01 45.05051 26.44787 20310 ft 367 kts 192°
2026-04-30 19:01 45.02527 26.44155 20116 ft 369 kts 191°
2026-04-30 19:02 44.97410 26.43936 19606 ft 368 kts 176°
2026-04-30 19:02 44.92319 26.44698 19111 ft 367 kts 176°
2026-04-30 19:03 44.87277 26.45421 18602 ft 364 kts 176°
2026-04-30 19:03 44.82272 26.46133 17493 ft 361 kts 175°
2026-04-30 19:04 44.77286 26.46842 16268 ft 359 kts 175°
2026-04-30 19:04 44.73173 26.46813 15262 ft 355 kts 196°
2026-04-30 19:05 44.69282 26.42894 14049 ft 349 kts 239°
2026-04-30 19:05 44.68105 26.36454 12863 ft 341 kts 266°
2026-04-30 19:06 44.67652 26.29854 11767 ft 337 kts 266°
2026-04-30 19:06 44.67417 26.26587 11248 ft 336 kts 266°
2026-04-30 19:06 44.66951 26.20331 10812 ft 307 kts 266°
2026-04-30 19:07 44.66522 26.14701 10332 ft 277 kts 266°
2026-04-30 19:07 44.66320 26.12015 9748 ft 276 kts 266°
2026-04-30 19:08 44.65916 26.06663 8569 ft 274 kts 266°
2026-04-30 19:08 44.65510 26.01341 7430 ft 273 kts 266°
2026-04-30 19:08 44.65307 25.98690 6900 ft 272 kts 266°
2026-04-30 19:09 44.64900 25.93417 5800 ft 270 kts 266°
2026-04-30 19:09 44.64700 25.90832 5270 ft 270 kts 266°
2026-04-30 19:09 44.64497 25.88218 4749 ft 268 kts 266°
2026-04-30 19:10 44.63898 25.83096 3701 ft 268 kts 245°
2026-04-30 19:10 44.61086 25.79988 2612 ft 254 kts 184°
2026-04-30 19:11 44.59438 25.80214 2514 ft 225 kts 154°
2026-04-30 19:11 44.56580 25.81787 2511 ft 213 kts 148°
2026-04-30 19:11 44.55519 25.83003 2515 ft 186 kts 118°
2026-04-30 19:12 44.55027 25.84625 2517 ft 182 kts 97°
2026-04-30 19:12 44.54928 25.86367 2518 ft 177 kts 86°
2026-04-30 19:12 44.55004 25.88066 2520 ft 178 kts 82°
2026-04-30 19:13 44.55252 25.91442 2508 ft 162 kts 81°
2026-04-30 19:13 44.55479 25.94456 2120 ft 148 kts 81°
2026-04-30 19:13 44.55581 25.95831 1947 ft 133 kts 81°
2026-04-30 19:14 44.55672 25.97056 1790 ft 125 kts 81°
2026-04-30 19:14 44.55766 25.98284 1629 ft 126 kts 82°
2026-04-30 19:14 44.55857 25.99494 1466 ft 126 kts 82°
2026-04-30 19:14 44.55947 26.00716 1303 ft 127 kts 82°
2026-04-30 19:15 44.56042 26.01968 1123 ft 130 kts 82°
2026-04-30 19:15 44.56233 26.04516 769 ft 134 kts 82°
2026-04-30 19:15 44.56330 26.05812 607 ft 134 kts 82°
2026-04-30 19:16 44.56428 26.07111 434 ft 133 kts 82°
2026-04-30 19:16 44.56526 26.08390 323 ft 124 kts 84°
2026-04-30 19:16 44.56646 26.10071 321 ft 60 kts 85°
2026-04-30 19:17 44.56680 26.10534 322 ft 22 kts 85°
2026-04-30 19:17 44.56717 26.10747 322 ft 5 kts 41°
2026-04-30 19:17 44.56776 26.10762 320 ft 12 kts 355°
2026-04-30 19:18 44.56870 26.10750 322 ft 0 kts 353°
2026-04-30 19:18 44.56880 26.10748 320 ft 3 kts 353°
2026-04-30 19:19 44.56914 26.10743 321 ft 6 kts 353°
2026-04-30 19:19 44.56967 26.10729 322 ft 9 kts 341°
2026-04-30 19:19 44.57061 26.10559 321 ft 14 kts 289°
2026-04-30 19:20 44.57059 26.10420 322 ft 15 kts 263°
2026-04-30 19:20 44.57049 26.10278 319 ft 13 kts 265°
2026-04-30 19:20 44.57026 26.09980 322 ft 17 kts 264°
2026-04-30 19:21 44.57012 26.09802 322 ft 19 kts 263°
2026-04-30 19:21 44.56986 26.09458 321 ft 18 kts 264°
2026-04-30 19:22 44.56964 26.09168 322 ft 11 kts 264°
2026-04-30 19:22 44.56933 26.08770 319 ft 13 kts 263°
2026-04-30 19:23 44.56954 26.08547 322 ft 5 kts 346°
2026-04-30 19:24 44.57060 26.08530 321 ft 12 kts 355°
2026-04-30 19:24 44.57150 26.08516 320 ft 14 kts 355°
2026-04-30 19:24 44.57226 26.08398 321 ft 12 kts 263°
2026-04-30 19:25 44.57199 26.08039 321 ft 4 kts 264°
2026-04-30 19:26 44.57143 26.08005 322 ft 8 kts 173°
2026-04-30 19:26 44.57132 26.08007 319 ft 0 kts 173°